CW9181 Weather Reports


time (UTC)temp
C
wind
direction
speed
KPH
gust
KPH
rain 1hr
cm
rain 24hr
cm
rain mn
cm
humidity
%
barometer
mb
20260510195015 26 126 6.4 12.9 0.00 0.00 0.00 52 1013.8
20260510194018 26 67 4.8 11.3 0.00 0.00 0.00 56 1013.8
20260510193035 25 220 3.2 17.7 0.00 0.00 0.00 54 1013.8
20260510192032 25 140 4.8 8.0 0.00 0.00 0.00 56 1014.0
20260510191033 24 124 4.8 11.3 0.00 0.00 0.00 57 1014.0
20260510190029 24 245 4.8 12.9 0.00 0.00 0.00 56 1014.2
20260510185032 23 291 4.8 16.1 0.00 0.00 0.00 57 1014.2
20260510184054 23 293 6.4 14.5 0.00 0.00 0.00 56 1014.3
20260510183050 23 168 1.6 16.1 0.00 0.00 0.00 57 1014.3
20260510182025 22 205 3.2 12.9 0.00 0.00 0.00 58 1014.2
20260510181021 22 260 4.8 14.5 0.00 0.00 0.00 60 1014.2
20260510180036 22 115 8.0 16.1 0.00 0.00 0.00 60 1014.3
20260510175030 21 162 6.4 19.3 0.00 0.00 0.00 63 1014.3
20260510174028 21 170 8.0 16.1 0.00 0.00 0.00 63 1014.3
20260510173024 21 169 6.4 14.5 0.00 0.00 0.00 63 1014.2
20260510172018 20 168 4.8 16.1 0.00 0.00 0.00 65 1014.2
20260510171019 20 180 8.0 14.5 0.00 0.00 0.00 65 1014.2
20260510170018 20 169 6.4 12.9 0.00 0.00 0.00 65 1014.3
20260510165038 20 199 3.2 16.1 0.00 0.00 0.00 67 1014.3
20260510164052 20 145 6.4 14.5 0.00 0.00 0.00 67 1014.1
20260510163031 19 145 4.8 12.9 0.00 0.00 0.00 69 1014.1
20260510162031 18 280 6.4 12.9 0.00 0.00 0.00 71 1014.1
20260510161046 18 178 8.0 16.1 0.00 0.00 0.00 72 1014.0
20260510160023 17 131 9.7 16.1 0.00 0.00 0.00 72 1014.0
20260510155026 17 204 4.8 16.1 0.00 0.00 0.00 75 1014.0
20260510154041 16 193 6.4 14.5 0.00 0.00 0.00 75 1014.0
20260510153022 16 158 8.0 14.5 0.00 0.00 0.00 76 1014.0
20260510152023 16 112 8.0 12.9 0.00 0.00 0.00 76 1014.1
20260510151044 16 157 8.0 14.5 0.00 0.00 0.00 78 1014.1
20260510150021 15 122 4.8 12.9 0.00 0.00 0.00 79 1014.0
20260510145017 15 103 9.7 16.1 0.00 0.00 0.00 79 1013.9
20260510144015 15 135 6.4 16.1 0.00 0.00 0.00 80 1013.9
20260510143053 14 116 8.0 20.9 0.00 0.00 0.00 81 1014.0
20260510142026 13 146 9.7 12.9 0.00 0.00 0.00 83 1013.8
20260510141040 13 124 6.4 16.1 0.00 0.00 0.00 85 1013.7
20260510140017 13 118 8.0 14.5 0.00 0.00 0.00 85 1013.5
20260510135033 13 150 6.4 14.5 0.00 0.00 0.00 85 1013.4
20260510134028 13 110 9.7 14.5 0.00 0.00 0.00 85 1013.3
20260510133030 13 154 6.4 11.3 0.00 0.00 0.00 85 1013.2
20260510132053 13 212 8.0 16.1 0.00 0.00 0.00 85 1013.2
20260510131031 13 130 3.2 14.5 0.00 0.00 0.00 85 1012.8
20260510130033 13 155 4.8 11.3 0.00 0.00 0.00 85 1012.8
20260510125032 13 146 6.4 11.3 0.00 0.00 0.00 85 1012.9
20260510124031 13 185 4.8 11.3 0.00 0.00 0.00 85 1012.8
20260510123015 13 169 3.2 8.0 0.00 0.00 0.00 84 1012.8
20260510122016 13 168 4.8 14.5 0.00 0.00 0.00 84 1012.8
20260510121055 13 157 4.8 12.9 0.00 0.00 0.00 84 1012.8
20260510120055 13 185 4.8 12.9 0.00 0.00 0.00 84 1012.8
20260510115033 13 208 4.8 9.7 0.00 0.00 0.00 83 1012.8
20260510114032 13 146 6.4 12.9 0.00 0.00 0.00 83 1012.8
20260510113035 14 149 4.8 12.9 0.00 0.00 0.00 83 1012.7
20260510112055 14 186 4.8 12.9 0.00 0.00 0.00 83 1012.6
20260510111015 14 135 6.4 11.3 0.00 0.00 0.00 82 1012.5
20260510110033 14 179 4.8 9.7 0.00 0.00 0.00 82 1012.5
20260510105016 14 186 8.0 16.1 0.00 0.00 0.00 82 1012.5
20260510104035 14 130 6.4 14.5 0.00 0.00 0.00 82 1012.5
20260510103036 15 153 6.4 14.5 0.00 0.00 0.00 81 1012.6
20260510102035 15 168 4.8 12.9 0.00 0.00 0.00 81 1012.5
20260510101027 15 184 6.4 16.1 0.00 0.00 0.00 80 1012.5
20260510100028 15 184 4.8 16.1 0.00 0.00 0.00 80 1012.3
20260510095016 15 146 6.4 12.9 0.00 0.00 0.00 80 1012.4
20260510094032 15 137 6.4 12.9 0.00 0.00 0.00 79 1012.3
20260510093017 15 157 6.4 14.5 0.00 0.00 0.00 78 1012.3
20260510092020 16 164 6.4 14.5 0.00 0.00 0.00 77 1012.3
20260510091036 16 200 8.0 16.1 0.00 0.00 0.00 76 1012.2
20260510090016 16 164 6.4 14.5 0.00 0.00 0.00 75 1012.1
20260510085019 16 192 6.4 14.5 0.00 0.00 0.00 74 1012.2
20260510084021 17 171 4.8 12.9 0.00 0.00 0.00 74 1012.2
20260510083022 17 147 4.8 14.5 0.00 0.00 0.00 73 1012.1
20260510082026 17 167 4.8 14.5 0.00 0.00 0.00 73 1012.0
20260510081030 17 162 3.2 9.7 0.00 0.00 0.00 73 1012.1
20260510080031 17 172 3.2 9.7 0.00 0.00 0.00 72 1012.1
20260510075055 17 142 3.2 8.0 0.00 0.00 0.00 72 1011.9
20260510074018 17 118 3.2 9.7 0.00 0.00 0.00 72 1012.0
20260510073041 17 143 4.8 14.5 0.00 0.00 0.00 71 1012.1
20260510072045 18 130 6.4 12.9 0.00 0.00 0.00 71 1012.3
20260510071028 18 161 4.8 14.5 0.00 0.00 0.00 71 1012.2
20260510070033 18 154 4.8 9.7 0.00 0.00 0.00 71 1012.2
20260510065032 18 133 6.4 12.9 0.00 0.00 0.00 70 1012.2
20260510064025 18 172 3.2 12.9 0.00 0.00 0.00 70 1012.2
20260510063036 19 180 4.8 17.7 0.00 0.00 0.00 69 1012.2
20260510062031 19 146 9.7 16.1 0.00 0.00 0.00 69 1012.3
20260510061027 20 115 3.2 12.9 0.00 0.00 0.00 68 1012.1
20260510060025 20 188 6.4 12.9 0.00 0.00 0.00 68 1012.0
20260510055022 20 128 6.4 14.5 0.00 0.00 0.00 67 1012.0
20260510054022 20 113 6.4 12.9 0.00 0.00 0.00 67 1012.0
20260510053017 21 141 6.4 12.9 0.00 0.00 0.00 66 1012.1
20260510052032 21 169 6.4 9.7 0.00 0.00 0.00 65 1012.0
20260510051050 21 177 4.8 11.3 0.00 0.00 0.00 64 1011.9
20260510050041 21 155 4.8 14.5 0.00 0.00 0.00 62 1011.8
20260510045036 22 197 6.4 9.7 0.00 0.00 0.00 62 1011.8
20260510044034 22 147 6.4 11.3 0.00 0.00 0.00 62 1011.7
20260510043048 22 176 4.8 9.7 0.00 0.00 0.00 62 1011.7
20260510042026 23 165 4.8 9.7 0.00 0.00 0.00 62 1011.5
20260510041024 23 172 4.8 8.0 0.00 0.00 0.00 62 1011.3
20260510040031 23 186 3.2 9.7 0.00 0.00 0.00 60 1011.1
20260510035028 24 207 4.8 16.1 0.00 0.00 0.00 59 1011.1
20260510034024 25 182 3.2 12.9 0.00 0.00 0.00 59 1011.0
20260510033021 25 212 6.4 9.7 0.00 0.00 0.00 58 1010.8
20260510032021 25 172 3.2 9.7 0.00 0.00 0.00 57 1010.7
20260510031015 26 196 3.2 8.0 0.00 0.00 0.00 56 1010.7
20260510030033 26 180 1.6 9.7 0.00 0.00 0.00 54 1010.6
20260510025049 27 168 3.2 14.5 0.00 0.00 0.00 53 1010.5
20260510024037 27 223 3.2 12.9 0.00 0.00 0.00 51 1010.6
20260510023049 28 157 6.4 17.7 0.00 0.00 0.00 50 1010.4
20260510022022 28 200 4.8 16.1 0.00 0.00 0.00 48 1010.3
20260510021016 29 254 8.0 16.1 0.00 0.00 0.00 47 1010.3
20260510020052 30 209 6.4 19.3 0.00 0.00 0.00 46 1010.3
20260510015030 31 180 6.4 12.9 0.00 0.00 0.00 43 1010.4
20260510014028 31 265 4.8 14.5 0.00 0.00 0.00 34 1010.2
20260510013025 32 278 4.8 9.7 0.00 0.00 0.00 30 1010.1
20260510012047 32 254 4.8 9.7 0.00 0.00 0.00 31 1010.2
20260510011021 32 265 1.6 8.0 0.00 0.00 0.00 31 1010.3
20260510010045 32 335 3.2 8.0 0.00 0.00 0.00 31 1010.2
20260510005026 32 255 4.8 9.7 0.00 0.00 0.00 31 1010.3
20260510004036 32 265 3.2 6.4 0.00 0.00 0.00 32 1010.4
20260510003035 32 105 1.6 9.7 0.00 0.00 0.00 32 1010.4
20260510002033 32 270 4.8 9.7 0.00 0.00 0.00 33 1010.5
20260510001029 32 265 6.4 14.5 0.00 0.00 0.00 35 1010.6
20260510000029 32 303 1.6 9.7 0.00 0.00 0.00 35 1010.6
20260509235031 32 270 3.2 8.0 0.00 0.00 0.00 33 1010.7
20260509234027 32 230 4.8 8.0 0.00 0.00 0.00 35 1010.9
20260509233021 32 254 4.8 12.9 0.00 0.00 0.00 37 1011.0
20260509232019 32 332 4.8 9.7 0.00 0.00 0.00 35 1011.0
20260509231018 31 24 6.4 12.9 0.00 0.00 0.00 37 1011.0
20260509230036 31 298 4.8 14.5 0.00 0.00 0.00 35 1011.1
20260509225036 31 287 4.8 12.9 0.00 0.00 0.00 38 1011.3
20260509224018 31 6 4.8 8.0 0.00 0.00 0.00 39 1011.2
20260509223032 31 253 3.2 9.7 0.00 0.00 0.00 40 1011.4
20260509222035 30 265 11.3 17.7 0.00 0.00 0.00 41 1011.8
20260509221030 30 234 3.2 14.5 0.00 0.00 0.00 41 1011.9
20260509220025 30 277 3.2 12.9 0.00 0.00 0.00 43 1011.8
20260509215043 30 247 4.8 12.9 0.00 0.00 0.00 44 1012.1
20260509214040 30 256 1.6 14.5 0.00 0.00 0.00 46 1012.1
20260509213036 29 162 9.7 16.1 0.00 0.00 0.00 46 1012.3
20260509212056 28 4 4.8 12.9 0.00 0.00 0.00 47 1012.3
20260509211048 28 228 3.2 11.3 0.00 0.00 0.00 49 1012.4
20260509210047 28 167 6.4 12.9 0.00 0.00 0.00 49 1012.6
20260509205028 28 329 4.8 14.5 0.00 0.00 0.00 49 1012.6
20260509204023 28 235 3.2 8.0 0.00 0.00 0.00 49 1012.8
20260509203025 28 87 1.6 11.3 0.00 0.00 0.00 50 1012.7
20260509202022 27 246 6.4 12.9 0.00 0.00 0.00 50 1013.0
20260509201057 27 265 4.8 12.9 0.00 0.00 0.00 51 1013.0
20260509200036 27 114 3.2 11.3 0.00 0.00 0.00 54 1013.1